Location: ????????
(55.6189°N, 38.3031°E)
Time: 21:21:23
(UTC+00:00)

SL-16 R/B - Pass Details

Date: 15 November 2019
Orbit: 842 x 846 km, 71.0° (Epoch: 09 December)

Event Time Altitude Azimuth Distance (km) Brightness Sun altitude
Exits shadow 00:13:22 24° 38° (NE) 1,703 4.2 -39.4°
Drops below altitude 10° 00:17:13 10° 80° (E) 2,476 5.3 -39.0°
Sets 00:20:08 0° 94° (E) 3,409 6.0 -38.6°
